Date,TemperatureHighF,TemperatureAvgF,TemperatureLowF,DewpointHighF,DewpointAvgF,DewpointLowF,HumidityHigh,HumidityAvg,HumidityLow,PressureMaxIn,PressureMinIn,WindSpeedMaxMPH,WindSpeedAvgMPH,GustSpeedMaxMPH,PrecipitationSumIn
2013-3-1,41.1,32.1,28.6,24.1,21.4,18.1,77,63,44,30.08,29.97,7,3,12,0.00
2013-3-2,43.4,31.9,24.7,25.4,19.8,12.2,80,60,36,30.08,29.96,7,3,15,0.00
2013-3-3,35.8,26.0,20.3,13.2,9.7,6.9,61,47,32,30.15,30.02,8,4,25,0.00
2013-3-4,53.3,34.2,20.5,15.8,9.4,6.3,54,37,18,30.26,30.09,7,2,14,0.00
2013-3-5,49.2,39.2,32.5,46.7,25.8,16.1,99,59,45,30.18,29.77,6,1,15,0.79
2013-3-6,32.4,26.9,23.4,22.7,18.5,13.9,81,68,54,30.29,29.76,12,5,25,0.00
2013-3-7,47.2,31.6,23.9,24.0,20.2,17.7,81,63,38,30.36,30.26,9,5,15,0.04
2013-3-8,54.7,35.1,22.6,20.5,17.6,15.2,79,51,26,30.41,30.29,7,3,15,0.00
2013-3-9,61.2,42.7,26.4,22.8,17.9,13.0,57,38,21,30.42,30.33,5,1,9,0.00
2013-3-10,64.9,48.6,35.4,27.1,23.2,18.6,52,38,24,30.37,30.25,6,1,10,0.00
2013-3-11,52.7,48.5,43.2,50.4,42.3,25.5,98,80,48,30.27,29.90,9,2,19,0.79
2013-3-12,54.5,46.4,36.8,50.7,33.3,20.4,97,65,30,30.12,29.83,7,3,16,0.37
2013-3-13,48.9,37.1,26.9,24.1,16.6,9.8,58,43,27,30.26,30.07,9,3,17,0.00
2013-3-14,48.1,32.7,21.9,14.1,8.8,2.5,53,37,19,30.36,30.22,9,3,17,0.00
2013-3-15,68.1,47.3,29.5,32.8,22.3,9.1,63,39,21,30.29,30.01,6,2,11,0.00
2013-3-16,76.8,60.6,45.0,37.7,33.8,29.6,61,39,21,30.03,29.84,6,3,15,0.00
2013-3-17,72.1,57.0,42.5,42.3,37.8,34.4,86,51,28,30.15,29.97,7,2,11,0.00
2013-3-18,42.8,37.9,33.6,42.2,36.9,33.6,100,96,86,30.17,29.95,4,2,8,0.37
2013-3-19,57.7,44.6,35.5,42.8,24.8,7.7,100,53,25,30.18,29.94,8,3,20,0.00
2013-3-20,57.2,40.3,30.4,22.8,8.7,4.5,67,28,17,30.19,29.91,7,2,12,0.00
2013-3-21,38.8,28.3,19.3,19.1,7.9,3.3,59,40,26,30.03,29.82,9,4,22,0.00
2013-3-22,50.6,35.2,21.7,15.4,9.7,5.6,47,34,19,30.14,30.02,6,2,12,0.00
2013-3-23,62.6,43.2,33.3,38.3,27.2,13.6,87,54,37,30.09,29.94,4,1,7,0.05
2013-3-24,41.4,37.9,34.0,38.1,35.9,33.1,99,93,79,29.99,29.62,8,3,14,0.57
2013-3-25,40.6,32.5,27.3,33.8,19.1,12.2,98,58,35,29.95,29.59,8,4,21,0.09
2013-3-26,40.8,30.3,25.3,22.0,17.6,-99.9,74,58,41,30.27,29.94,8,4,16,0.00
2013-3-27,48.7,34.3,26.5,19.9,17.0,14.0,70,49,28,30.36,30.23,8,3,18,0.00
2013-3-28,54.0,37.8,26.8,19.7,15.3,11.8,57,40,23,30.39,30.27,8,3,13,0.00
2013-3-29,61.0,41.3,28.6,32.6,21.0,14.2,79,47,19,30.41,30.28,6,2,11,0.00
2013-3-30,63.3,48.1,39.0,42.3,34.7,31.0,88,63,33,30.30,30.14,8,1,10,0.25
2013-3-31,65.0,51.5,44.8,51.3,43.4,34.1,97,77,38,30.14,29.92,5,1,10,0.29